Year,Month,Day,Hour,Minute,Value (Times are PST for temperature in C)
2014,10,26,12,23,9.30
2014,10,26,12,24,9.30
2014,10,26,12,25,9.40
2014,10,26,12,26,9.40
2014,10,26,12,27,9.50
2014,10,26,12,28,9.50
2014,10,26,12,29,9.50
2014,10,26,12,30,9.60
2014,10,26,12,31,9.60
2014,10,26,12,32,9.60
2014,10,26,12,33,9.70
2014,10,26,12,34,9.70
2014,10,26,12,35,9.80
2014,10,26,12,36,9.80
2014,10,26,12,37,9.80
2014,10,26,12,38,9.80
2014,10,26,12,39,9.80
2014,10,26,12,40,9.80
2014,10,26,12,41,9.70
2014,10,26,12,42,9.80
2014,10,26,12,43,9.80
2014,10,26,12,44,9.90
2014,10,26,12,45,10.00
2014,10,26,12,46,10.00
2014,10,26,12,47,10.10
2014,10,26,12,48,10.10
2014,10,26,12,49,10.10
2014,10,26,12,50,10.10
2014,10,26,12,51,10.20
2014,10,26,12,52,10.20
2014,10,26,12,53,10.20
2014,10,26,12,54,10.20
2014,10,26,12,55,10.30
2014,10,26,12,56,10.40
2014,10,26,12,57,10.40
2014,10,26,12,58,10.40
2014,10,26,12,59,10.40
2014,10,26,13,00,10.40
2014,10,26,13,01,10.40
2014,10,26,13,02,10.40
2014,10,26,13,03,10.40
2014,10,26,13,04,10.40
2014,10,26,13,05,10.30
2014,10,26,13,06,10.30
2014,10,26,13,07,10.20
2014,10,26,13,08,10.10
2014,10,26,13,09,10.10
2014,10,26,13,10,10.10
2014,10,26,13,11,10.10
2014,10,26,13,12,10.10
2014,10,26,13,13,10.10
2014,10,26,13,14,10.10
2014,10,26,13,15,10.10
2014,10,26,13,16,10.10
2014,10,26,13,17,10.10
2014,10,26,13,18,10.10
2014,10,26,13,19,10.10
2014,10,26,13,20,10.10
2014,10,26,13,21,10.10
2014,10,26,13,22,10.10
2014,10,26,13,23,10.20
2014,10,26,13,24,10.20
2014,10,26,13,25,10.20
2014,10,26,13,26,10.20
2014,10,26,13,27,10.20
2014,10,26,13,28,10.30
2014,10,26,13,29,10.30
2014,10,26,13,30,10.40
2014,10,26,13,31,10.40
2014,10,26,13,32,10.50
2014,10,26,13,33,10.60
2014,10,26,13,34,10.60
2014,10,26,13,35,10.60
2014,10,26,13,36,10.60
2014,10,26,13,37,10.60
2014,10,26,13,38,10.60
2014,10,26,13,39,10.60
2014,10,26,13,40,10.70
2014,10,26,13,41,10.80
2014,10,26,13,42,10.80
2014,10,26,13,43,10.90
2014,10,26,13,44,10.90
2014,10,26,13,45,10.90
2014,10,26,13,46,10.90
2014,10,26,13,47,11.00
2014,10,26,13,48,11.10
2014,10,26,13,49,11.10
2014,10,26,13,50,11.10
2014,10,26,13,51,11.10
2014,10,26,13,52,11.10
2014,10,26,13,53,11.10
2014,10,26,13,54,11.10
2014,10,26,13,55,11.20
2014,10,26,13,56,11.20
2014,10,26,13,57,11.30
2014,10,26,13,58,11.40
2014,10,26,13,59,11.40
2014,10,26,14,00,11.40
2014,10,26,14,01,11.40
2014,10,26,14,02,11.50
2014,10,26,14,03,11.60
2014,10,26,14,04,11.60
2014,10,26,14,05,11.60
2014,10,26,14,06,11.60
2014,10,26,14,07,11.60
2014,10,26,14,08,11.60
2014,10,26,14,09,11.60
2014,10,26,14,10,11.60
2014,10,26,14,11,11.60
2014,10,26,14,12,11.70
2014,10,26,14,13,11.70
2014,10,26,14,14,11.70
2014,10,26,14,15,11.70
2014,10,26,14,16,11.80
2014,10,26,14,17,11.80
2014,10,26,14,18,11.80
2014,10,26,14,19,11.80
2014,10,26,14,20,11.80
2014,10,26,14,21,11.80
2014,10,26,14,22,11.90
2014,10,26,14,23,12.00
2014,10,26,14,24,12.10
2014,10,26,14,25,12.10
2014,10,26,14,26,12.00
2014,10,26,14,27,12.00
2014,10,26,14,28,12.00
2014,10,26,14,29,12.10
2014,10,26,14,30,12.10
2014,10,26,14,31,12.20
2014,10,26,14,32,12.20
2014,10,26,14,33,12.20
2014,10,26,14,34,12.20
2014,10,26,14,35,12.20
2014,10,26,14,36,12.20
2014,10,26,14,37,12.10
2014,10,26,14,38,12.00
2014,10,26,14,39,12.00
2014,10,26,14,40,11.90
2014,10,26,14,41,12.00
2014,10,26,14,42,12.00
2014,10,26,14,43,12.00
2014,10,26,14,44,12.00
2014,10,26,14,45,12.00
2014,10,26,14,46,12.10
2014,10,26,14,47,12.10
2014,10,26,14,48,12.10
2014,10,26,14,49,12.10
2014,10,26,14,50,12.10
2014,10,26,14,51,12.10
2014,10,26,14,52,12.00
2014,10,26,14,53,12.00
2014,10,26,14,54,12.00
2014,10,26,14,55,12.00
2014,10,26,14,56,12.00
2014,10,26,14,57,12.00
2014,10,26,14,58,11.90
2014,10,26,14,59,11.80
2014,10,26,15,00,11.80
2014,10,26,15,01,11.80
2014,10,26,15,02,11.70
2014,10,26,15,03,11.60
2014,10,26,15,04,11.60
2014,10,26,15,05,11.60
2014,10,26,15,06,11.60
2014,10,26,15,07,11.50
2014,10,26,15,08,11.40
2014,10,26,15,09,11.40
2014,10,26,15,10,11.30
2014,10,26,15,11,11.30
2014,10,26,15,12,11.30
2014,10,26,15,13,11.30
2014,10,26,15,14,11.30
2014,10,26,15,15,11.40
2014,10,26,15,16,11.40
2014,10,26,15,17,11.40
2014,10,26,15,18,11.40
2014,10,26,15,19,11.30
2014,10,26,15,20,11.30
2014,10,26,15,21,11.30
2014,10,26,15,22,11.40
2014,10,26,15,23,11.40
2014,10,26,15,24,11.40
2014,10,26,15,25,11.40
2014,10,26,15,26,11.40
2014,10,26,15,27,11.50
2014,10,26,15,28,11.60
2014,10,26,15,29,11.60
2014,10,26,15,30,11.60
2014,10,26,15,31,11.60
2014,10,26,15,32,11.60
2014,10,26,15,33,11.70
2014,10,26,15,34,11.80
2014,10,26,15,35,11.80
2014,10,26,15,36,11.80
2014,10,26,15,37,11.80
2014,10,26,15,38,11.80
2014,10,26,15,39,11.80
2014,10,26,15,40,11.80
2014,10,26,15,41,11.80
2014,10,26,15,42,11.80
2014,10,26,15,43,11.80
2014,10,26,15,44,11.80
2014,10,26,15,45,11.80
2014,10,26,15,46,11.80
2014,10,26,15,47,11.80
2014,10,26,15,48,11.80
2014,10,26,15,49,11.80
2014,10,26,15,50,11.80
2014,10,26,15,51,11.80
2014,10,26,15,52,11.80
2014,10,26,15,53,11.80
2014,10,26,15,54,11.80
2014,10,26,15,55,11.70
2014,10,26,15,56,11.70
2014,10,26,15,57,11.70
2014,10,26,15,58,11.70
2014,10,26,15,59,11.70
2014,10,26,16,00,11.70
2014,10,26,16,01,11.70
2014,10,26,16,02,11.70
2014,10,26,16,03,11.70
2014,10,26,16,04,11.70
2014,10,26,16,05,11.70
2014,10,26,16,06,11.70
2014,10,26,16,07,11.70
2014,10,26,16,08,11.70
2014,10,26,16,09,11.70
2014,10,26,16,10,11.80
2014,10,26,16,11,11.80
2014,10,26,16,12,11.80
2014,10,26,16,13,11.80
2014,10,26,16,14,11.80
2014,10,26,16,15,11.80
2014,10,26,16,16,11.80
2014,10,26,16,17,11.80
2014,10,26,16,18,11.80
2014,10,26,16,19,11.80
2014,10,26,16,20,11.80
2014,10,26,16,21,11.80
2014,10,26,16,22,11.80
2014,10,26,16,23,11.80
2014,10,26,16,24,11.80
2014,10,26,16,25,11.80
2014,10,26,16,26,11.80
2014,10,26,16,27,11.80
2014,10,26,16,28,11.80
2014,10,26,16,29,11.80
2014,10,26,16,30,11.80
2014,10,26,16,31,11.80
2014,10,26,16,32,11.80
2014,10,26,16,33,11.80
2014,10,26,16,34,11.80
2014,10,26,16,35,11.80
2014,10,26,16,36,11.80
2014,10,26,16,37,11.80
2014,10,26,16,38,11.80
2014,10,26,16,39,11.80
2014,10,26,16,40,11.80
2014,10,26,16,41,11.80
2014,10,26,16,42,11.80
2014,10,26,16,43,11.80
2014,10,26,16,44,11.70
2014,10,26,16,45,11.70
2014,10,26,16,46,11.70
2014,10,26,16,47,11.60
2014,10,26,16,48,11.60
2014,10,26,16,49,11.60
2014,10,26,16,50,11.60
2014,10,26,16,51,11.60
2014,10,26,16,52,11.60
2014,10,26,16,53,11.60
2014,10,26,16,54,11.60
2014,10,26,16,55,11.60
2014,10,26,16,56,11.60
2014,10,26,16,57,11.50
2014,10,26,16,58,11.40
2014,10,26,16,59,11.40
2014,10,26,17,00,11.40
2014,10,26,17,01,11.40
2014,10,26,17,02,11.40
2014,10,26,17,03,11.40
2014,10,26,17,04,11.40
2014,10,26,17,05,11.40
2014,10,26,17,06,11.40
2014,10,26,17,07,11.40
2014,10,26,17,08,11.40
2014,10,26,17,09,11.40
2014,10,26,17,10,11.40
2014,10,26,17,11,11.40
2014,10,26,17,12,11.40
2014,10,26,17,13,11.30
2014,10,26,17,14,11.30
2014,10,26,17,15,11.30
2014,10,26,17,16,11.40
2014,10,26,17,17,11.40
2014,10,26,17,18,11.40
2014,10,26,17,19,11.40
2014,10,26,17,20,11.40
2014,10,26,17,21,11.40
2014,10,26,17,22,11.40
2014,10,26,17,23,11.40
2014,10,26,17,24,11.40
2014,10,26,17,25,11.40
2014,10,26,17,26,11.40
2014,10,26,17,27,11.40
2014,10,26,17,28,11.40
2014,10,26,17,29,11.40
2014,10,26,17,30,11.30
2014,10,26,17,31,11.30
2014,10,26,17,32,11.20
2014,10,26,17,33,11.20
2014,10,26,17,34,11.10
2014,10,26,17,35,11.10
2014,10,26,17,36,11.10
2014,10,26,17,37,11.10
2014,10,26,17,38,11.10
2014,10,26,17,39,11.10
2014,10,26,17,40,11.10
2014,10,26,17,41,11.10
2014,10,26,17,42,11.10
2014,10,26,17,43,11.10
2014,10,26,17,44,11.10
2014,10,26,17,45,11.10
2014,10,26,17,46,11.10
2014,10,26,17,47,11.10
2014,10,26,17,48,11.10
2014,10,26,17,49,11.10
2014,10,26,17,50,11.10
2014,10,26,17,51,11.10
2014,10,26,17,52,11.10
2014,10,26,17,53,11.10
2014,10,26,17,54,11.10
2014,10,26,17,55,11.10
2014,10,26,17,56,11.10
2014,10,26,17,57,11.10
2014,10,26,17,58,11.10
2014,10,26,17,59,11.10
2014,10,26,18,00,11.10
2014,10,26,18,01,11.10
2014,10,26,18,02,11.10
